Weather History for Darwin Airport, Northern Territory

Change the Weather History Date:

Friday, February 22, 2013

  Actual Average Record
Temperature  
Mean Temperature 81 °F -  
Max Temperature 87 °F 89 °F - ()
Min Temperature 75 °F 76 °F - ()
Cooling Degree Days 16    
Growing Degree Days 31 (Base 50)    
Moisture  
Dew Point 77 °F    
Average Humidity 87    
Maximum Humidity 100    
Minimum Humidity 66    
Precipitation  
Precipitation 0.04 in 0.45 in - ()
Sea Level Pressure  
Sea Level Pressure 29.71 in    
Wind  
Wind Speed 8 mph ()    
Max Wind Speed 21 mph    
Max Gust Speed -    
Visibility 7.4 miles    
Events Rain    
T = Trace of Precipitation, MM = Missing Value Source: Averaged Metar Reports

Daily Weather History Graph

Daily Weather History Graph

Search for Another Location

Airport:

Trip Planner

Search our weather history database for the weather conditions in past years. The results will help you decide how hot, cold, wet, or windy it might be!

Date:

Astronomy

Feb. 22, 2013 Rise Set
Actual Time 6:47 AM ACST 7:12 PM ACST
Civil Twilight 6:25 AM ACST 7:33 PM ACST
Nautical Twilight 6:00 AM ACST 7:59 PM ACST
Astronomical Twilight 5:35 AM ACST 8:24 PM ACST
Moon 4:25 PM ACST (2/22) 3:27 AM ACST (2/22)
Length of Visible Light 13h 08m
Length of Day
12h 24m
Waxing Gibbous, 86% of the Moon is Illuminated
Feb 22
Waxing Gibbous
Feb 26
Full
Mar 5
Last Quarter
Mar 12
New
Mar 20
First Quarter

Hourly Weather History & Observations

Time (ACST) Temp. Heat Index Dew Point Humidity Pressure Visibility Wind Dir Wind Speed Gust Speed Precip Events Conditions
12:00 AM 79 °F - 77 °F 93% 29.72 in 19 mi East 5.8 mph - -   Partly Cloudy
12:00 AM 78.8 °F - 77.0 °F 94% 29.71 in 6.2 mi East 5.8 mph - N/A   Mostly Cloudy
12:30 AM 79 °F - 77 °F 92% 29.71 in - East 5.8 mph - -  
12:30 AM 78.8 °F - 77.0 °F 94% 29.71 in 6.2 mi East 5.8 mph - N/A   Mostly Cloudy
1:00 AM 78.8 °F - 77.0 °F 94% 29.68 in 6.2 mi East 9.2 mph - N/A   Mostly Cloudy
1:30 AM 78.8 °F - 77.0 °F 94% 29.68 in 6.2 mi ENE 6.9 mph - N/A   Mostly Cloudy
2:00 AM 78.8 °F - 77.0 °F 94% 29.68 in 6.2 mi ENE 6.9 mph - N/A   Mostly Cloudy
2:30 AM 78.8 °F - 77.0 °F 94% 29.68 in 6.2 mi East 5.8 mph - N/A   Mostly Cloudy
3:00 AM 78 °F - 77 °F 96% 29.68 in 19 mi East 5.8 mph - -   Partly Cloudy
3:00 AM 78.8 °F - 77.0 °F 94% 29.68 in 6.2 mi East 5.8 mph - N/A   Mostly Cloudy
3:30 AM 78 °F - 77 °F 96% 29.69 in - East 6.9 mph - -  
3:30 AM 78.8 °F - 77.0 °F 94% 29.68 in 6.2 mi East 6.9 mph - N/A   Partly Cloudy
4:00 AM 78.8 °F - 77.0 °F 94% 29.68 in 6.2 mi East 5.8 mph - N/A   Mostly Cloudy
4:30 AM 78.8 °F - 77.0 °F 94% 29.68 in 6.2 mi East 5.8 mph - N/A   Mostly Cloudy
5:00 AM 78.8 °F - 77.0 °F 94% 29.68 in 6.2 mi East 8.1 mph - N/A   Mostly Cloudy
5:30 AM 78.8 °F - 77.0 °F 94% 29.68 in 6.2 mi East 9.2 mph - N/A   Mostly Cloudy
5:47 AM 78.8 °F - 77.0 °F 94% 29.68 in 4.3 mi ENE 11.5 mph - N/A Rain Rain Showers
6:00 AM 78 °F - 77 °F 97% 29.70 in 12 mi ENE 8.1 mph - - Rain Light Rain Showers
6:00 AM 78.8 °F - 77.0 °F 94% 29.68 in 6.2 mi ENE 8.1 mph - N/A Rain Light Rain Showers
6:16 AM 78.8 °F - 77.0 °F 94% 29.71 in 1.9 mi East 10.4 mph - N/A Rain Rain Showers
6:30 AM 77 °F - 76 °F 96% 29.71 in - East 13.8 mph - -  
6:30 AM 77.0 °F - 77.0 °F 100% 29.71 in 3.1 mi East 13.8 mph - N/A Rain Rain Showers
6:40 AM 77.0 °F - 75.2 °F 94% 29.71 in 5.0 mi East 13.8 mph - N/A Rain Light Rain Showers
7:00 AM 77.0 °F - 75.2 °F 94% 29.71 in 6.2 mi East 8.1 mph - N/A   Mostly Cloudy
7:30 AM 75.2 °F - 75.2 °F 100% 29.71 in 6.2 mi East 8.1 mph - N/A   Mostly Cloudy
8:00 AM 77.0 °F - 75.2 °F 94% 29.71 in 6.2 mi East 5.8 mph - N/A   Mostly Cloudy
8:30 AM 77.0 °F - 75.2 °F 94% 29.74 in 6.2 mi East 6.9 mph - N/A   Mostly Cloudy
9:00 AM 78 °F - 76 °F 90% 29.76 in 19 mi East 9.2 mph - -   Partly Cloudy
9:00 AM 77.0 °F - 75.2 °F 94% 29.74 in 6.2 mi East 9.2 mph - N/A   Mostly Cloudy
9:30 AM 78 °F - 76 °F 91% 29.76 in - East 9.2 mph - -  
9:30 AM 78.8 °F - 75.2 °F 89% 29.77 in 6.2 mi East 9.2 mph - N/A   Mostly Cloudy
10:00 AM 80.6 °F 87.1 °F 77.0 °F 89% 29.77 in 6.2 mi ENE 10.4 mph - N/A   Mostly Cloudy
10:30 AM 82.4 °F 90.9 °F 77.0 °F 84% 29.77 in 6.2 mi ENE 10.4 mph - N/A   Mostly Cloudy
11:00 AM 84.2 °F 94.1 °F 77.0 °F 79% 29.74 in 6.2 mi ENE 12.7 mph - N/A   Mostly Cloudy
11:30 AM 86.0 °F 96.9 °F 77.0 °F 74% 29.74 in 6.2 mi NNE 12.7 mph - N/A   Mostly Cloudy
12:00 PM 86 °F - 76 °F 67% 29.73 in 19 mi NE 15.0 mph - -   Partly Cloudy
12:00 PM 86.0 °F 96.9 °F 77.0 °F 74% 29.71 in 6.2 mi NE 15.0 mph - N/A   Mostly Cloudy
12:30 PM 87 °F - 77 °F 66% 29.73 in - NE 15.0 mph - -  
12:30 PM 86.0 °F 96.9 °F 77.0 °F 74% 29.71 in 6.2 mi NE 15.0 mph - N/A   Mostly Cloudy
1:00 PM 87.8 °F 99.7 °F 77.0 °F 70% 29.71 in 6.2 mi NE 12.7 mph - N/A   Mostly Cloudy
1:30 PM 86.0 °F 96.9 °F 77.0 °F 74% 29.71 in 6.2 mi NNE 11.5 mph - N/A   Mostly Cloudy
2:00 PM 84.2 °F 94.1 °F 77.0 °F 79% 29.71 in 6.2 mi North 12.7 mph - N/A   Mostly Cloudy
2:21 PM 84.2 °F 94.1 °F 77.0 °F 79% 29.68 in 1.6 mi North 20.7 mph - N/A Rain Rain Showers
2:30 PM 80.6 °F 88.1 °F 78.8 °F 94% 29.68 in 3.1 mi North 12.7 mph - N/A Rain Rain Showers
2:50 PM 80.6 °F 88.1 °F 78.8 °F 94% 29.68 in 6.2 mi North 9.2 mph - N/A   Mostly Cloudy
3:00 PM 82 °F - 79 °F 87% 29.69 in 12 mi North 9.2 mph - - Rain Light Rain Showers
3:00 PM 82.4 °F 92.4 °F 78.8 °F 89% 29.68 in 6.2 mi North 9.2 mph - N/A   Mostly Cloudy
3:30 PM 82 °F - 78 °F 83% 29.69 in - North 10.4 mph - -  
3:30 PM 82.4 °F 90.9 °F 77.0 °F 84% 29.68 in 6.2 mi North 10.4 mph - N/A   Mostly Cloudy
4:00 PM 82.4 °F 89.5 °F 75.2 °F 79% 29.68 in 6.2 mi North 10.4 mph - N/A   Mostly Cloudy
4:30 PM 82.4 °F 90.9 °F 77.0 °F 84% 29.68 in 6.2 mi North 9.2 mph - N/A Rain Light Rain
5:00 PM 82.4 °F 90.9 °F 77.0 °F 84% 29.65 in 6.2 mi North 6.9 mph - N/A   Mostly Cloudy
5:30 PM 82.4 °F 90.9 °F 77.0 °F 84% 29.65 in 6.2 mi NNE 6.9 mph - N/A   Mostly Cloudy
6:00 PM 83 °F - 78 °F 79% 29.67 in 19 mi North 5.8 mph - -   Partly Cloudy
6:00 PM 82.4 °F 90.9 °F 77.0 °F 84% 29.65 in 6.2 mi North 5.8 mph - N/A   Mostly Cloudy
6:30 PM 83 °F - 77 °F 78% 29.68 in - North 9.2 mph - -  
6:30 PM 82.4 °F 90.9 °F 77.0 °F 84% 29.68 in 6.2 mi North 9.2 mph - N/A   Mostly Cloudy
7:00 PM 82.4 °F 90.9 °F 77.0 °F 84% 29.68 in 6.2 mi NNW 11.5 mph - N/A   Mostly Cloudy
7:30 PM 82.4 °F 90.9 °F 77.0 °F 84% 29.68 in 6.2 mi NNW 10.4 mph - N/A   Mostly Cloudy
8:00 PM 82.4 °F 90.9 °F 77.0 °F 84% 29.71 in 6.2 mi NNW 8.1 mph - N/A   Mostly Cloudy
8:30 PM 80.6 °F 86.2 °F 75.2 °F 84% 29.71 in 6.2 mi North 6.9 mph - N/A   Mostly Cloudy
9:00 PM 81 °F - 75 °F 77% 29.73 in 19 mi North 5.8 mph - -   Partly Cloudy
9:00 PM 80.6 °F 86.2 °F 75.2 °F 84% 29.74 in 6.2 mi North 5.8 mph - N/A   Mostly Cloudy
9:30 PM 80 °F - 76 °F 82% 29.74 in - North 5.8 mph - -  
9:30 PM 80.6 °F 86.2 °F 75.2 °F 84% 29.74 in 6.2 mi North 5.8 mph - N/A   Mostly Cloudy
10:00 PM 80.6 °F 86.2 °F 75.2 °F 84% 29.74 in 6.2 mi NNE 5.8 mph - N/A   Mostly Cloudy
10:30 PM 80.6 °F 87.1 °F 77.0 °F 89% 29.77 in 6.2 mi NNE 8.1 mph - N/A   Mostly Cloudy
11:00 PM 80.6 °F 86.2 °F 75.2 °F 84% 29.77 in 6.2 mi NNE 8.1 mph - N/A   Mostly Cloudy
11:30 PM 78.8 °F - 77.0 °F 94% 29.77 in 6.2 mi NNE 9.2 mph - N/A Rain Light Rain